AirNav   Jet Aviation Boston
 
 989 users online  

6TS9 MCP Heliport
Plano, Texas, USA

GOING TO PLANO?


FAA INFORMATION EFFECTIVE 29 MARCH 2018

Location

FAA Identifier: 6TS9
Lat/Long: 33-01-21.4200N / 096-45-59.6000W
33-01.357000N / 096-45.993333W
33.0226167 / -96.7665556
(estimated)
Elevation: 744 ft. / 227 m (estimated)
Variation: 06E (1985)
From city: 3 miles N of PLANO, TX
Time zone: UTC -5 (UTC -6 during Standard Time)
Zip code: 75075

Heliport Operations

Heliport use: Private use, MEDICAL.
Activation date: 08/1985
Control tower: no
ARTCC: FORT WORTH CENTER
FSS: FORT WORTH FLIGHT SERVICE STATION
Attendance: UNATNDD
HELI RSTD TO MEDICAL EMERG FLTS.
Wind indicator: yes
Segmented circle: no

Heliport Communications

WX AWOS-3 at ADS (5 nm SW): PHONE 972-386-4855
WX ASOS at DAL (11 nm S): PHONE 214-353-1551
WX ASOS at TKI (13 nm NE): 119.925 (972-548-8525)
WX AWOS-3 at 49T (15 nm S): 135.425 (214-670-1243)
WX ASOS at DFW (16 nm SW): PHONE 972-615-2608
WX AWOS-3 at F46 (18 nm E): 121.25 (972-772-6699)

Nearby radio navigation aids

VOR radial/distance  VOR name  Freq  Var
CVEr035/10.5COWBOY VOR/DME116.2006E
TTTr050/16.6MAVERICK VOR/DME113.1006E
FUZr063/22.3RANGER VORTAC115.7006E

 
NDB name  Hdg/Dist  Freq  Var  ID
MELISA209/16.942103EVLY ...- .-.. -.--
MESQUITE314/17.524803EPQF .--. --.- ..-.
CADDO MILLS262/26.131606EMII -- .. ..
TRAVIS295/30.526006EAVZ .- ...- --..

Heliport Services

Runway Information

Helipad H2

Dimensions: 44 x 44 ft. / 13 x 13 m
Surface: concrete
Latitude: 33-01.346667N
Longitude: 096-45.992833W
Elevation: 744.0 ft.
Traffic pattern: leftleft

Helipad H1

Dimensions: 30 x 30 ft. / 9 x 9 m
CONC TD PAD WITH A 60 X 60' LNDG AREA.
Surface: concrete
Latitude: 33-01.369000N
Longitude: 096-45.992833W
Elevation: 744.0 ft.
Traffic pattern: leftleft

Heliport Ownership and Management from official FAA records

Ownership: Privately-owned
Owner: HCA MEDICAL CENTER OF PLANO
3901 W 15TH
PLANO, TX 75075
Phone 214-596-6800
Manager: HOSPITAL ADMINISTRATOR
3901 W 15TH
PLANO, TX 75075
Phone 214-596-6800

Additional Remarks

A40-1 HELI LGTD WITH PERIMETER LGTS & ILLUMINATED NGTS.
A52-H1 OBSTNS: 70'HOSPITAL BLDG 200'E. MKD 50'PLINES 100'N. 50'OFC BLDG 1000'ESE. 30'TREES 200'E. 45'APT COMPLEX 1000'NW. 250'WTR TWR 2500'W & BLDG 300'WNW.

Instrument Procedures

There are no published instrument procedures at 6TS9.

Some nearby airports with instrument procedures:

KADS - Addison Airport (5 nm SW)
KDAL - Dallas Love Field Airport (11 nm S)
KTKI - McKinney National Airport (13 nm NE)
KDFW - Dallas-Fort Worth International Airport (16 nm SW)
F46 - Ralph M Hall/Rockwall Municipal Airport (18 nm E)
 
Loc | Ops | Rwys | IFR | FBO | Links
Com | Nav | Svcs | Stats | Notes

Lake Texoma Jet Center
AirBoss

 
Area around 6TS9 (MCP Heliport)
 
Road maps at: MapQuest Bing Google
 
Aerial photo
No photo
 
Sectional chart

 
Airport distance calculator
Flying to MCP Heliport? Find the distance to fly.

From to 6TS9

Sunrise and sunset
Times for 25-Apr-2018
 Local
(UTC-5)
 Zulu
(UTC)
Morning civil twilight06:2111:21
Sunrise06:4711:47
Sunset20:0301:03
Evening civil twilight20:2901:29

Current date and time
Zulu (UTC)  26-Apr-2018 00:01:05
Local (UTC-5)  25-Apr-2018 19:01:05
 
METAR
KADS 
4nm SW 
252347Z 31008KT 10SM OVC009 12/10 A3012
KDAL 
11nm S 
252353Z 31012KT 10SM BKN014 BKN080 BKN250 12/10 A3011 RMK AO2 RAE17 SLP193 P0000 60005 T01220100 10167 20117 50002
KTKI 
13nm NE 
252353Z 33013KT 10SM BKN009 BKN034 OVC100 12/10 A3011 RMK AO2 SLP200 60032 T01170100 10156 20111 56010
KDFW 
15nm SW 
252353Z 31010KT 10SM BKN013 OVC100 12/11 A3010 RMK AO2 SLP189 60009 T01170106 10156 20111 58001
KF46 
18nm E 
252355Z AUTO 10SM OVC011 12/11 A3010 RMK AO2 60013 T01160108 10160 20112
TAF
KDAL 
11nm S 
252213Z 2522/2618 33014KT P6SM OVC015 TEMPO 2522/2524 -SHRA BKN010 FM260100 34012KT P6SM SCT040 FM260300 31006KT P6SM SKC FM261400 34011KT P6SM SKC
KDFW 
15nm SW 
252213Z 2522/2624 33014KT P6SM OVC015 TEMPO 2522/2524 -SHRA BKN010 FM260100 34012KT P6SM SCT040 FM260300 31006KT P6SM SKC FM261400 34011KT P6SM SKC
NOTAMs
Click for the latest NOTAMs
NOTAMs are issued by the DoD/FAA and will open in a separate window not controlled by AirNav.

 

 
 

Would you like to see your business listed on this page?

 If your business provides an interesting product or service to pilots, flight crews, aircraft, or users of the MCP Heliport, you should consider listing it here.  To start the listing process, click on the button below
 
Add a business
 

Other Pages about MCP Heliport

Update a link
 
Copyright © AirNav, LLC. All rights reserved. Privacy Policy  Contact